Regional Weather Roundup
Issued by NWS Burlington, VT

Current Version | Previous Version | Graphics & Text | Print | Product List | Glossary Off
Versions: 1 2 3 4 5 6 7 8 9 10 11 12 13 14 15 16 17 18 19 20 21 22 23 24 25 26 27 28 29 30 31 32 33 34 35 36 37 38 39 40 41 42 43 44 45 46 47 48 49 50

000
ASUS41 KBTV 291530
RWRBTV
VERMONT REGIONAL WEATHER ROUNDUP
NATIONAL WEATHER SERVICE BURLINGTON VT
1000 AM EST THU JAN 29 2015

NOTE: "FAIR" INDICATES FEW OR NO CLOUDS BELOW 12,000 FEET WITH NO
SIGNIFICANT WEATHER AND/OR OBSTRUCTIONS TO VISIBILITY.

* THESE REPORTS ARE NOT UNDER NWS QUALITY CONTROL AND/OR DO NOT
  REPORT WEATHER SUCH AS PRECIPITATION AND FOG.

VTZ001>019-291600-
_____VERMONT_____


CITY           SKY/WX    TMP DP  RH WIND       PRES   REMARKS
BURLINGTON     PTSUNNY   12   0  58 SE6       30.25F
MONTPELIER     SUNNY      1  -1  91 CALM      30.26F
MORRISVILLE    SUNNY     -1  -7  75 CALM      30.26F
ST. JOHNSBURY*   N/A     -4 -10  75 MISG      30.28F
MIDDLEBURY*    FAIR      12  -1  57 CALM      30.22F
RUTLAND*       SUNNY      9   1  72 CALM      30.22F
SPRINGFIELD    SUNNY      3  -5  69 CALM      30.31F
HIGHGATE*      FAIR      13  -1  52 CALM      30.22F
NEWPORT*       FAIR       5  -4  68 SW6       30.21F
BENNINGTON     SUNNY     12   2  64 CALM      30.23F
SUTTON*          N/A     12 N/A N/A MISG        N/A
MT. MANSFIELD*   N/A     25 N/A N/A CALM        N/A

_____LAKE CHAMPLAIN_____


CITY           SKY/WX    TMP DP  RH WIND       PRES   REMARKS
BURTON ISLAND*   N/A     12   1  62 S8          N/A
COLCHESTER RF*   N/A     18  14  86 S20         N/A  WCI   1
DIAMOND ISL*     N/A     10   3  72 S7          N/A

$$

NYZ007-026>031-035-052-083-291600-
_____NORTHERN NEW YORK_____


CITY           SKY/WX    TMP DP  RH WIND       PRES   REMARKS
PLATTSBURGH    SUNNY     15   4  61 S6        30.23F
SARANAC LAKE   SUNNY      4  -5  66 CALM      30.09F
MASSENA        SUNNY     13  -2  51 NE6       30.20F
OGDENSBURG*    SUNNY     18   0  45 CALM      30.13F
POTSDAM*       SUNNY     18   1  49 CALM      30.14F
WATERTOWN      MOSUNNY   17   3  54 E6        30.11F
FT DRUM        MOSUNNY   15  -5  41 SE14      30.09F WCI   0
ALBANY         PTSUNNY    8  -1  66 W3        30.31F
GLENS FALLS    SUNNY      7   1  76 CALM      30.29F

$$
NHZ002-005-011-291600-
_____NEW HAMPSHIRE_____


CITY           SKY/WX    TMP DP  RH WIND       PRES   REMARKS
LEBANON        SUNNY      3  -2  79 CALM      30.31F
KEENE          SUNNY      7   1  78 CALM      30.31F
MT WASHINGTON  MOSUNNY   19 -11  25 SW10        N/A  WCI   8
PLYMOUTH       FAIR      14   1  57 CALM      30.28F
WHITEFIELD     SUNNY      1  -6  72 CALM      30.24F

$$

_____REGIONAL QUEBEC LOCATIONS_____


CITY           SKY/WX    TMP DP  RH WIND       PRES   REMARKS
MONTREAL       PTSUNNY   14   1  57 E5        30.23F
QUEBEC CITY    PTSUNNY    7  -2  66 W2        30.28F
SHERBROOKE     SUNNY      1  -6  71 CALM      30.24F

_____REGIONAL ONTARIO LOCATIONS_____


CITY           SKY/WX    TMP DP  RH WIND       PRES   REMARKS
OTTAWA         PTSUNNY    9  -2  61 E6        30.16F

______KEY______
VSB  - VISIBILITY IN MILES
WCI  - WIND CHILL INDEX
HX   - HEAT INDEX
$$
NNNN


USA.gov is the U.S. government's official web portal to all federal, state and local government web resources and services.